timestamp,wind_dir_avg,wind_spd_avg,wind_spd_max_dir,wind_spd_gust,battery_voltage,lat,long
2022-10-11 00:04:00+00:00,263.0,7.72,267.0,10.04,12.49,47.59359,-54.27349
2022-10-11 00:14:01+00:00,260.0,9.35,253.0,10.52,12.41,47.59359,-54.27349
2022-10-11 00:24:01+00:00,257.0,9.34,255.0,10.38,12.41,47.59359,-54.27349
2022-10-11 00:34:01+00:00,257.0,8.57,253.0,9.94,12.41,47.59359,-54.27349
2022-10-11 00:44:01+00:00,266.0,7.96,267.0,9.03,12.41,47.59359,-54.27349
2022-10-11 00:54:01+00:00,266.0,8.46,269.0,9.35,12.41,47.59359,-54.27349
2022-10-11 01:04:01+00:00,266.0,7.12,268.0,8.19,12.41,47.59359,-54.27349
2022-10-11 01:14:01+00:00,267.0,8.48,265.0,9.3,12.41,47.59359,-54.27349
2022-10-11 01:24:01+00:00,261.0,7.33,268.0,8.36,12.41,47.59359,-54.27349
2022-10-11 01:34:01+00:00,266.0,7.12,266.0,7.89,12.41,47.59359,-54.27349
2022-10-11 01:44:01+00:00,276.0,6.5,272.0,7.71,12.41,47.59359,-54.27349
2022-10-11 01:54:01+00:00,272.0,6.15,273.0,6.69,12.41,47.59359,-54.27349
2022-10-11 02:04:01+00:00,271.0,5.92,270.0,7.11,12.41,47.59359,-54.27349
2022-10-11 02:14:01+00:00,269.0,5.99,268.0,6.84,12.41,47.59359,-54.27349
2022-10-11 02:24:01+00:00,263.0,6.11,266.0,7.05,12.41,47.59359,-54.27349
2022-10-11 02:34:01+00:00,267.0,5.55,270.0,6.36,12.41,47.59359,-54.27349
2022-10-11 02:44:01+00:00,263.0,6.46,262.0,7.25,12.41,47.59359,-54.27349
2022-10-11 02:54:01+00:00,269.0,6.18,271.0,6.91,12.41,47.59359,-54.27349
2022-10-11 03:04:01+00:00,276.0,5.13,276.0,5.87,12.41,47.59359,-54.27349
2022-10-11 03:14:00+00:00,283.0,5.43,285.0,6.26,12.41,47.59359,-54.27349
2022-10-11 03:24:00+00:00,282.0,5.26,286.0,5.96,12.41,47.59359,-54.27349
2022-10-11 03:34:00+00:00,285.0,5.13,284.0,5.67,12.41,47.59359,-54.27349
2022-10-11 03:44:00+00:00,275.0,3.77,273.0,4.3,12.41,47.59359,-54.27349
2022-10-11 03:54:00+00:00,271.0,4.71,269.0,5.39,12.41,47.59359,-54.27349
2022-10-11 04:04:00+00:00,280.0,4.57,281.0,5.54,12.41,47.59359,-54.27349
2022-10-11 04:14:01+00:00,289.0,4.27,289.0,4.68,12.41,47.59359,-54.27349
2022-10-11 04:24:01+00:00,281.0,4.52,286.0,5.28,12.41,47.59359,-54.27349
2022-10-11 04:34:01+00:00,275.0,4.78,276.0,5.36,12.41,47.59359,-54.27349
2022-10-11 04:44:01+00:00,274.0,5.43,278.0,6.41,12.41,47.59359,-54.27349
2022-10-11 04:54:01+00:00,290.0,5.09,294.0,6.33,12.41,47.59359,-54.27349
2022-10-11 05:04:01+00:00,278.0,4.55,281.0,5.62,12.41,47.59359,-54.27349
2022-10-11 05:14:00+00:00,281.0,5.37,284.0,6.34,12.41,47.59359,-54.27349
2022-10-11 05:24:00+00:00,284.0,4.77,282.0,5.31,12.41,47.59359,-54.27349
2022-10-11 05:34:00+00:00,274.0,5.26,279.0,6.15,12.41,47.59359,-54.27349
2022-10-11 05:44:00+00:00,263.0,5.0,277.0,5.9,12.41,47.59359,-54.27349
2022-10-11 05:54:00+00:00,248.0,5.15,252.0,6.21,12.41,47.59359,-54.27349
2022-10-11 06:04:00+00:00,268.0,4.98,261.0,5.9,12.41,47.59359,-54.27349
2022-10-11 06:14:01+00:00,248.0,4.52,249.0,5.86,12.41,47.59359,-54.27349
2022-10-11 06:24:01+00:00,238.0,3.95,248.0,4.66,12.41,47.59359,-54.27349
2022-10-11 06:34:01+00:00,251.0,3.61,252.0,4.1,12.41,47.59359,-54.27349
2022-10-11 06:44:01+00:00,242.0,3.94,243.0,4.83,12.41,47.59359,-54.27349
2022-10-11 06:54:01+00:00,246.0,4.57,247.0,5.4,12.41,47.59359,-54.27349
2022-10-11 07:04:01+00:00,245.0,3.96,254.0,4.83,12.41,47.59359,-54.27349
2022-10-11 07:14:01+00:00,244.0,3.81,246.0,4.72,12.33,47.59359,-54.27349
2022-10-11 07:24:01+00:00,245.0,4.08,245.0,4.54,12.33,47.59359,-54.27349
2022-10-11 07:34:01+00:00,255.0,4.09,242.0,5.05,12.33,47.59359,-54.27349
2022-10-11 07:44:01+00:00,259.0,4.27,262.0,4.92,12.33,47.59359,-54.27349
2022-10-11 07:54:01+00:00,261.0,4.33,265.0,5.61,12.33,47.59359,-54.27349
2022-10-11 08:04:01+00:00,251.0,4.35,256.0,5.06,12.33,47.59359,-54.27349
2022-10-11 08:14:00+00:00,254.0,4.64,253.0,5.34,12.33,47.59359,-54.27349
2022-10-11 08:24:00+00:00,251.0,5.87,250.0,6.78,12.33,47.59359,-54.27349
2022-10-11 08:34:00+00:00,242.0,5.75,252.0,6.39,12.33,47.59359,-54.27349
2022-10-11 08:44:00+00:00,249.0,5.7,249.0,6.46,12.33,47.59359,-54.27349
2022-10-11 08:54:00+00:00,249.0,6.04,248.0,6.96,12.33,47.59359,-54.27349
2022-10-11 09:04:00+00:00,253.0,7.15,255.0,8.0,12.33,47.59359,-54.27349
2022-10-11 09:14:00+00:00,262.0,6.68,255.0,8.03,12.25,47.59359,-54.27349
2022-10-11 09:24:00+00:00,274.0,5.72,273.0,6.8,12.25,47.59359,-54.27349
2022-10-11 09:34:00+00:00,269.0,5.28,269.0,6.51,12.25,47.59359,-54.27349
2022-10-11 09:44:00+00:00,259.0,4.93,261.0,5.77,12.25,47.59359,-54.27349
2022-10-11 09:54:00+00:00,262.0,5.05,265.0,5.62,12.25,47.59359,-54.27349
2022-10-11 10:04:00+00:00,274.0,5.09,277.0,5.88,12.25,47.59359,-54.27349
2022-10-11 10:14:01+00:00,281.0,4.49,281.0,5.08,12.49,47.59359,-54.27349
2022-10-11 10:24:01+00:00,283.0,4.36,281.0,4.82,12.49,47.59359,-54.27349
2022-10-11 10:34:01+00:00,279.0,3.97,287.0,4.62,12.49,47.59359,-54.27349
2022-10-11 10:44:01+00:00,268.0,4.73,269.0,5.72,12.49,47.59359,-54.27349
2022-10-11 10:54:01+00:00,282.0,3.92,288.0,4.32,12.49,47.59359,-54.27349
2022-10-11 11:04:01+00:00,271.0,4.49,266.0,5.25,12.49,47.59359,-54.27349
2022-10-11 11:14:01+00:00,281.0,4.47,282.0,5.2,14.16,47.59359,-54.27349
2022-10-11 11:24:01+00:00,268.0,4.9,269.0,5.99,14.16,47.59359,-54.27349
2022-10-11 11:34:01+00:00,275.0,4.15,281.0,4.97,14.16,47.59359,-54.27349
2022-10-11 11:44:01+00:00,270.0,4.23,271.0,5.44,14.16,47.59359,-54.27349
2022-10-11 11:54:01+00:00,282.0,4.19,280.0,5.26,14.16,47.59359,-54.27349
2022-10-11 12:04:01+00:00,260.0,3.56,256.0,4.23,14.16,47.59359,-54.27349
2022-10-11 12:14:00+00:00,258.0,3.58,255.0,3.88,14.4,47.59359,-54.27349
2022-10-11 12:24:00+00:00,231.0,4.23,230.0,4.86,14.4,47.59359,-54.27349
2022-10-11 12:34:00+00:00,251.0,3.97,250.0,4.69,14.4,47.59359,-54.27349
2022-10-11 12:44:00+00:00,248.0,4.97,247.0,6.11,14.4,47.59359,-54.27349
2022-10-11 12:54:00+00:00,263.0,5.26,267.0,6.47,14.4,47.59359,-54.27349
2022-10-11 13:04:00+00:00,249.0,5.21,255.0,6.83,14.4,47.59359,-54.27349
2022-10-11 13:14:01+00:00,271.0,5.52,269.0,6.03,13.6,47.59359,-54.27349
2022-10-11 13:24:01+00:00,254.0,6.39,257.0,7.92,13.6,47.59359,-54.27349
2022-10-11 13:34:01+00:00,264.0,5.53,260.0,6.61,13.6,47.59359,-54.27349
2022-10-11 13:44:01+00:00,265.0,8.22,264.0,9.16,13.6,47.59359,-54.27349
2022-10-11 13:54:01+00:00,261.0,7.31,258.0,8.25,13.6,47.59359,-54.27349
2022-10-11 14:04:01+00:00,267.0,6.93,271.0,7.85,13.6,47.59359,-54.27349
2022-10-11 15:14:00+00:00,279.0,7.07,286.0,7.79,14.56,47.59359,-54.27349
2022-10-11 15:24:00+00:00,275.0,6.68,278.0,7.61,14.56,47.59359,-54.27349
2022-10-11 15:34:00+00:00,272.0,6.9,271.0,8.14,14.56,47.59359,-54.27349
2022-10-11 15:44:00+00:00,262.0,9.37,258.0,11.9,14.56,47.59359,-54.27349
2022-10-11 15:54:00+00:00,256.0,7.96,259.0,9.19,14.56,47.59359,-54.27349
2022-10-11 16:04:00+00:00,233.0,6.77,233.0,7.82,14.56,47.59359,-54.27349
2022-10-11 16:14:00+00:00,241.0,6.42,240.0,7.38,13.6,47.59359,-54.27349
2022-10-11 16:24:00+00:00,245.0,7.3,246.0,8.26,13.6,47.59359,-54.27349
2022-10-11 16:34:00+00:00,255.0,8.87,255.0,10.74,13.6,47.59359,-54.27349
2022-10-11 16:44:00+00:00,249.0,9.09,249.0,10.38,13.6,47.59359,-54.27349
2022-10-11 16:54:00+00:00,257.0,10.42,257.0,11.99,13.6,47.59359,-54.27349
2022-10-11 17:04:00+00:00,252.0,11.79,249.0,13.39,13.6,47.59359,-54.27349
2022-10-11 18:14:01+00:00,252.0,11.2,252.0,12.41,13.92,47.59359,-54.27349
2022-10-11 18:24:01+00:00,250.0,11.81,241.0,13.86,13.92,47.59359,-54.27349
2022-10-11 18:34:01+00:00,261.0,8.55,255.0,10.72,13.92,47.59359,-54.27349
2022-10-11 18:44:01+00:00,267.0,9.24,272.0,11.64,13.92,47.59359,-54.27349
2022-10-11 18:54:01+00:00,255.0,11.27,254.0,12.65,13.92,47.59359,-54.27349
2022-10-11 19:04:01+00:00,264.0,10.02,267.0,11.19,13.92,47.59359,-54.27349
2022-10-11 19:14:01+00:00,249.0,13.2,248.0,15.71,13.44,47.59359,-54.27349
2022-10-11 19:24:01+00:00,256.0,11.14,259.0,12.17,13.44,47.59359,-54.27349
2022-10-11 19:34:01+00:00,251.0,9.53,254.0,10.8,13.44,47.59359,-54.27349
2022-10-11 19:44:01+00:00,247.0,11.42,248.0,12.85,13.44,47.59359,-54.27349
2022-10-11 19:54:01+00:00,249.0,9.67,252.0,11.91,13.44,47.59359,-54.27349
2022-10-11 20:04:01+00:00,241.0,11.93,240.0,13.29,13.44,47.59359,-54.27349
2022-10-11 20:14:00+00:00,255.0,10.02,258.0,11.15,13.53,47.59359,-54.27349
2022-10-11 20:24:00+00:00,257.0,10.49,252.0,12.22,13.53,47.59359,-54.27349
2022-10-11 20:34:00+00:00,247.0,11.72,243.0,12.98,13.53,47.59359,-54.27349
2022-10-11 20:44:00+00:00,255.0,11.16,259.0,12.45,13.53,47.59359,-54.27349
2022-10-11 20:54:00+00:00,254.0,10.82,252.0,11.96,13.53,47.59359,-54.27349
2022-10-11 21:04:00+00:00,248.0,10.66,237.0,12.15,13.53,47.59359,-54.27349
2022-10-11 21:14:00+00:00,252.0,11.28,257.0,12.54,12.97,47.59359,-54.27349
2022-10-11 21:24:00+00:00,246.0,10.45,252.0,11.57,12.97,47.59359,-54.27349
2022-10-11 21:34:00+00:00,247.0,10.87,252.0,13.02,12.97,47.59359,-54.27349
2022-10-11 21:44:00+00:00,246.0,11.17,244.0,12.51,12.97,47.59359,-54.27349
2022-10-11 21:54:00+00:00,249.0,11.19,239.0,12.27,12.97,47.59359,-54.27349
2022-10-11 22:04:00+00:00,247.0,9.59,250.0,12.1,12.97,47.59359,-54.27349
2022-10-11 22:14:00+00:00,242.0,10.56,244.0,12.36,12.57,47.59359,-54.27349
2022-10-11 22:24:00+00:00,251.0,11.09,252.0,12.78,12.57,47.59359,-54.27349
2022-10-11 22:34:00+00:00,245.0,11.3,246.0,12.49,12.57,47.59359,-54.27349
2022-10-11 22:44:00+00:00,240.0,12.09,238.0,13.59,12.57,47.59359,-54.27349
2022-10-11 22:54:00+00:00,241.0,11.67,237.0,12.73,12.57,47.59359,-54.27349
2022-10-11 23:04:00+00:00,242.0,9.73,246.0,11.18,12.57,47.59359,-54.27349
2022-10-11 23:14:00+00:00,243.0,11.51,241.0,13.0,12.49,47.59359,-54.27349
2022-10-11 23:24:00+00:00,237.0,11.84,232.0,13.0,12.49,47.59359,-54.27349
2022-10-11 23:34:00+00:00,235.0,13.03,233.0,14.53,12.49,47.59359,-54.27349
2022-10-11 23:44:00+00:00,236.0,12.04,231.0,14.27,12.49,47.59359,-54.27349
2022-10-11 23:54:00+00:00,232.0,12.07,231.0,13.53,12.49,47.59359,-54.27349
